Location: ??
(35.5090°N, 139.6783°E)
Time: 19:55:43
(UTC+00:00)

Resurs 1-3 - Pass Details

Date: 08 November 2025
Orbit: 613 x 615 km, 97.7° (Epoch: 08 December)

Event Time Altitude Azimuth Distance (km) Brightness Sun altitude
Rises 09:22:44 0° 170° (S) 2,869 6.9 -21.2°
Reaches altitude 10° 09:24:55 10° 171° (S) 1,968 6.1 -21.6°
Maximum altitude 09:29:12 79° 258° (WSW) 630 3.6 -22.5°
Drops below altitude 10° 09:33:31 10° 346° (NNW) 1,981 6.2 -23.3°
Sets 09:35:42 0° 347° (NNW) 2,890 7.1 -23.8°
